Date String (YYYY-MM-DD hh:mm:ss) UTC,Instrument flags,absolute air pressure of the measurement (hPa),sample flow rate (lpm),inlet stack bypass flow (lpm),air temperature of the measurement (°C),ambient temperature measured by the external sensor (°C),aerosol sample conditioner tube jacket temperature (°C),OPC LED temperature (°C),internal box temperature (°C),relative humidity of the measurement (%),span deviation,mass concentration of particles derived from Lorenz-Mie calculation of OPC scattering (μg/m³),mass concentration of particles derived from Lorenz-Mie calculation of OPC scattering (μg/m³),mass concentration of particles derived from Lorenz-Mie calculation of OPC scattering (μg/m³)
DateTimeUTC,F1_M11,P_M11,Q1_M11,Q2_M11,T1_M11,T2_M11,T3_M11,T4_M11,T5_M11,U1_M11,ZSPAN_M11,X2_M11,X0_M11,X1_M11
2023-07-13 06:00:00,SystemResetWarning,0831.3,5.01,000.00,029.1,025.6,000.0,037.4,030.5,25.2,0000.0,0003.69,0013.79,0002.92
2023-07-13 06:01:00,SystemResetWarning,0831.3,5.01,000.00,029.1,025.9,000.0,037.4,030.4,25.5,0000.0,0003.66,0013.58,0002.94
2023-07-13 06:02:00,SystemResetWarning,0831.3,4.99,000.00,029.0,026.2,000.0,037.4,030.5,25.6,0000.0,0003.60,0011.84,0002.96
2023-07-13 06:03:00,SystemResetWarning,0831.3,4.99,000.00,029.0,026.6,000.0,037.5,030.6,25.7,0000.0,0003.56,0010.08,0002.96
2023-07-13 06:04:00,SystemResetWarning,0831.3,5.00,000.00,029.1,026.9,000.0,037.5,030.6,25.7,0000.0,0003.58,0010.45,0002.96
2023-07-13 06:05:00,SystemResetWarning,0831.3,5.00,000.00,029.1,027.2,000.0,037.5,030.7,25.6,0000.0,0003.58,0010.45,0002.94
2023-07-13 06:06:00,SystemResetWarning,0831.4,5.01,000.00,029.1,027.5,000.0,037.5,030.8,25.5,0000.0,0003.54,0009.87,0002.93
2023-07-13 06:07:00,SystemResetWarning,0831.4,5.00,000.00,029.1,027.7,000.0,037.6,030.8,25.4,0000.0,0003.52,0010.07,0002.91
2023-07-13 06:08:00,SystemResetWarning,0831.5,4.98,000.00,029.2,027.9,000.0,037.6,030.9,25.0,0000.0,0003.54,0010.74,0002.90
2023-07-13 06:09:00,SystemResetWarning,0831.4,5.00,000.00,029.2,028.0,000.0,037.6,030.9,25.2,0000.0,0003.53,0010.08,0002.90
2023-07-13 06:10:00,SystemResetWarning,0831.5,5.00,000.00,029.3,027.6,000.0,037.6,031.0,24.7,0000.0,0003.52,0010.35,0002.89
2023-07-13 06:11:00,SystemResetWarning,0831.6,5.01,000.00,029.2,025.9,000.0,037.5,030.7,24.6,0000.0,0003.48,0010.60,0002.89
2023-07-13 06:12:00,SystemResetWarning,0831.4,5.01,000.00,029.2,025.5,000.0,037.4,030.6,24.9,0000.0,0003.47,0010.54,0002.90
2023-07-13 06:13:00,SystemResetWarning,0831.5,5.01,000.00,029.1,025.8,000.0,037.4,030.5,24.8,0000.0,0003.49,0010.70,0002.89
2023-07-13 06:14:00,SystemResetWarning,0831.5,5.00,000.00,029.1,026.1,000.0,037.5,030.5,24.2,0000.0,0003.51,0009.99,0002.90
2023-07-13 06:15:00,SystemResetWarning,0831.6,5.00,000.00,029.1,026.5,000.0,037.5,030.6,23.7,0000.0,0003.49,0009.22,0002.91
2023-07-13 06:16:00,SystemResetWarning,0831.5,5.00,000.00,029.1,026.9,000.0,037.5,030.6,24.1,0000.0,0003.47,0008.56,0002.92
2023-07-13 06:17:00,SystemResetWarning,0831.5,5.00,000.00,029.1,027.2,000.0,037.5,030.7,24.4,0000.0,0003.48,0008.63,0002.92
2023-07-13 06:18:00,SystemResetWarning,0831.5,5.00,000.00,029.1,027.4,000.0,037.6,030.8,23.4,0000.0,0003.50,0008.57,0002.94
2023-07-13 06:19:00,SystemResetWarning,0831.5,5.00,000.00,029.2,027.7,000.0,037.6,030.8,22.1,0000.0,0003.47,0007.58,0002.93
2023-07-13 06:20:00,SystemResetWarning,0831.6,4.99,000.00,029.2,027.9,000.0,037.6,030.9,21.7,0000.0,0003.47,0007.64,0002.91
2023-07-13 06:21:00,SystemResetWarning,0831.5,5.00,000.00,029.2,028.0,000.0,037.6,031.0,21.6,0000.0,0003.50,0007.58,0002.90
2023-07-13 06:22:00,SystemResetWarning,0831.5,4.98,000.00,029.3,027.2,000.0,037.6,030.9,21.4,0000.0,0003.51,0007.35,0002.88
2023-07-13 06:23:00,SystemResetWarning,0831.5,5.01,000.00,029.2,025.7,000.0,037.5,030.7,21.9,0000.0,0003.51,0008.20,0002.85
2023-07-13 06:24:00,SystemResetWarning,0831.5,5.01,000.00,029.1,025.5,000.0,037.4,030.5,22.6,0000.0,0003.50,0008.41,0002.82
2023-07-13 06:25:00,SystemResetWarning,0831.5,5.01,000.00,029.1,025.8,000.0,037.4,030.5,23.2,0000.0,0003.53,0008.55,0002.80
2023-07-13 06:26:00,SystemResetWarning,0831.5,5.00,000.00,029.1,026.2,000.0,037.5,030.5,23.8,0000.0,0003.54,0008.60,0002.77
2023-07-13 06:27:00,SystemResetWarning,0831.5,5.00,000.00,029.1,026.6,000.0,037.5,030.6,24.1,0000.0,0003.53,0008.62,0002.75
2023-07-13 06:28:00,SystemResetWarning,0831.5,5.00,000.00,029.1,026.9,000.0,037.5,030.7,24.5,0000.0,0003.49,0008.62,0002.72
2023-07-13 06:29:00,SystemResetWarning,0831.5,5.00,000.00,029.1,027.2,000.0,037.6,030.7,24.5,0000.0,0003.48,0008.56,0002.68
2023-07-13 06:30:00,SystemResetWarning,0831.5,5.00,000.00,029.1,027.5,000.0,037.6,030.8,24.6,0000.0,0003.48,0008.69,0002.66
2023-07-13 06:31:00,SystemResetWarning,0831.5,5.00,000.00,029.2,027.7,000.0,037.6,030.8,24.6,0000.0,0003.47,0008.57,0002.64
2023-07-13 06:32:00,SystemResetWarning,0831.5,5.01,000.00,029.2,027.9,000.0,037.6,030.9,24.5,0000.0,0003.43,0008.45,0002.63
2023-07-13 06:33:00,SystemResetWarning,0831.5,5.00,000.00,029.3,028.0,000.0,037.6,031.0,24.4,0000.0,0003.43,0008.30,0002.64
2023-07-13 06:34:00,SystemResetWarning,0831.5,5.00,000.00,029.3,027.6,000.0,037.6,030.9,24.0,0000.0,0003.46,0007.89,0002.65
2023-07-13 06:35:00,SystemResetWarning,0831.4,4.99,000.00,029.2,025.9,000.0,037.5,030.7,23.7,0000.0,0003.46,0007.75,0002.67
2023-07-13 06:36:00,SystemResetWarning,0831.4,5.02,000.00,029.2,025.4,000.0,037.4,030.6,23.5,0000.0,0003.48,0007.78,0002.71
2023-07-13 06:37:00,SystemResetWarning,0831.4,5.00,000.00,029.1,025.7,000.0,037.4,030.4,23.3,0000.0,0003.47,0007.72,0002.76
2023-07-13 06:38:00,SystemResetWarning,0831.5,5.00,000.00,029.1,026.0,000.0,037.5,030.4,23.0,0000.0,0003.50,0008.72,0002.79
2023-07-13 06:39:00,SystemResetWarning,0831.4,5.00,000.00,029.1,026.4,000.0,037.5,030.5,23.0,0000.0,0003.55,0009.46,0002.83
2023-07-13 06:40:00,SystemResetWarning,0831.4,5.00,000.00,029.1,026.8,000.0,037.5,030.6,23.0,0000.0,0003.58,0009.79,0002.87
2023-07-13 06:41:00,SystemResetWarning,0831.4,4.99,000.00,029.1,027.1,000.0,037.5,030.7,22.8,0000.0,0003.62,0009.86,0002.92
2023-07-13 06:42:00,SystemResetWarning,0831.3,5.00,000.00,029.1,027.4,000.0,037.6,030.8,22.4,0000.0,0003.66,0009.89,0002.97
2023-07-13 06:43:00,SystemResetWarning,0831.3,5.00,000.00,029.1,027.6,000.0,037.6,030.8,22.5,0000.0,0003.70,0010.06,0003.00
2023-07-13 06:44:00,SystemResetWarning,0831.4,5.00,000.00,029.2,027.8,000.0,037.6,030.9,23.1,0000.0,0003.71,0010.19,0003.01
2023-07-13 06:45:00,SystemResetWarning,0831.3,5.00,000.00,029.2,027.9,000.0,037.6,030.9,23.2,0000.0,0003.69,0009.77,0003.02
2023-07-13 06:46:00,SystemResetWarning,0831.3,4.99,000.00,029.3,028.1,000.0,037.7,031.0,23.1,0000.0,0003.64,0009.46,0003.01
2023-07-13 06:47:00,SystemResetWarning,0831.3,4.99,000.00,029.3,027.3,000.0,037.6,030.9,22.9,0000.0,0003.59,0009.34,0003.00
2023-07-13 06:48:00,SystemResetWarning,0831.3,5.00,000.00,029.3,025.7,000.0,037.5,030.7,22.7,0000.0,0003.61,0009.64,0002.97
2023-07-13 06:49:00,SystemResetWarning,0831.2,5.00,000.00,029.2,025.5,000.0,037.4,030.6,22.8,0000.0,0003.58,0009.23,0002.95
2023-07-13 06:50:00,SystemResetWarning,0831.2,5.02,000.00,029.1,025.8,000.0,037.5,030.4,23.0,0000.0,0003.51,0008.41,0002.92
2023-07-13 06:51:00,SystemResetWarning,0831.3,4.99,000.00,029.1,026.1,000.0,037.5,030.5,23.2,0000.0,0003.45,0007.94,0002.89
2023-07-13 06:52:00,SystemResetWarning,0831.3,5.00,000.00,029.1,026.5,000.0,037.5,030.6,23.2,0000.0,0003.41,0007.74,0002.85
2023-07-13 06:53:00,SystemResetWarning,0831.3,5.01,000.00,029.1,026.9,000.0,037.5,030.6,23.2,0000.0,0003.37,0007.69,0002.82
2023-07-13 06:54:00,SystemResetWarning,0831.3,5.00,000.00,029.1,027.2,000.0,037.6,030.7,23.2,0000.0,0003.38,0008.23,0002.81
2023-07-13 06:55:00,SystemResetWarning,0831.3,4.99,000.00,029.1,027.4,000.0,037.6,030.8,23.1,0000.0,0003.38,0008.21,0002.81
2023-07-13 06:56:00,SystemResetWarning,0831.3,5.00,000.00,029.2,027.6,000.0,037.6,030.8,23.2,0000.0,0003.41,0008.23,0002.82
2023-07-13 06:57:00,SystemResetWarning,0831.4,5.00,000.00,029.2,027.8,000.0,037.6,030.9,22.9,0000.0,0003.42,0008.37,0002.86
2023-07-13 06:58:00,SystemResetWarning,0831.5,5.00,000.00,029.3,028.0,000.0,037.6,030.9,22.8,0000.0,0003.41,0008.30,0002.86
2023-07-13 06:59:00,SystemResetWarning,0831.5,5.00,000.00,029.3,028.1,000.0,037.7,031.0,23.4,0000.0,0003.37,0008.06,0002.86
